Voltar ao catálogo

SL-8 DEB

AtivoVLEO
NORAD 8756·DEBRIS·🇷🇺 Russia

Lançado Sep 11, 1974 de Plesetsk Cosmodrome

Loading…

Próximas Passagens (próximas 24 horas)

TLE

AtualizadoSource: Space-Track

Época: Sep 14, 2026, 11:19 UTC

1 08756U 74071C   26257.47197446  .00018281  00000-0  76697-3 0  9997
2 08756  74.0321  29.1394 0004471  65.2088 294.9576 15.23440323904358

Acompanhe SL-8 DEB em tempo real com AllMySat

Download on the App Store